Welcome to the New NWS' Forecast!
Most changes are behind the scenes, but click here for differences you might notice.

Regional Weather Roundup (RWR)

Issued by Gray - Portland, ME (GYX)

                            
125 
ASUS41 KGYX 220110
RWRGYX
WEATHER ROUNDUP FOR MAINE AND NEW HAMPSHIRE
NATIONAL WEATHER SERVICE GRAY ME
800 PM EST SUN JAN 21 2018

MEZ002-005-006-010-012-015-018-020-021-024-026-027-029-220200-
MAINE
  
CITY           SKY/WX    TMP DP  RH WIND       PRES   REMARKS
PORTLAND       CLOUDY    36  30  79 CALM      30.18S                  
SANFORD        CLOUDY    30  27  88 CALM      30.18R                  
BAR HARBOR     CLOUDY    32  20  61 N3        30.18R                  
WISCASSET      CLOUDY    32  29  88 CALM      30.19S                  
ROCKLAND       CLOUDY    38  25  59 CALM      30.18S                  
FRYEBURG       CLOUDY    35  27  72 CALM      30.15S                  
LEWISTONAUBURN CLOUDY    35  26  69 CALM      30.17S                  
AUGUSTA        CLOUDY    37  25  61 CALM      30.17S                  
WATERVILLE     CLOUDY    34  25  69 CALM      30.13R                  
BANGOR         CLOUDY    28  19  69 N5        30.18R                  
GREENVILLE       N/A     23  12  62 NW13      30.10R WCI  11          
MILLINOCKET    CLOUDY    24   7  48 NW13G22   30.20R WCI  12          
HOULTON        FAIR      20   4  50 W8        30.15R                  
PRESQUE ISLE   MOCLDY    14   5  67 NW13      30.18R WCI   0          
FRENCHVILLE    CLOUDY     9  -6  50 NW14      30.13R WCI  -7          
CARIBOU        CLOUDY    14   1  56 NW14      30.15R WCI  -1          
$$

NHZ002-005-008-009-011-012-014-220200-
NEW HAMPSHIRE
  
CITY           SKY/WX    TMP DP  RH WIND       PRES   REMARKS
PORTSMOUTH     CLOUDY    33  27  76 CALM      30.16S                  
ROCHESTER      CLOUDY    33  28  81 N3        30.16S                  
NASHUA         FAIR      29  27  92 CALM      30.18R                  
MANCHESTER     MOCLDY    32  27  81 CALM      30.16R                  
CONCORD        CLOUDY    31  28  89 CALM      30.16S                  
LACONIA        MOCLDY    29  27  92 CALM      30.16                   
PLYMOUTH       FAIR      30  28  92 CALM      30.16S                  
BERLIN         CLOUDY    32  27  81 CALM      30.12S                  
WHITEFIELD     CLOUDY    32  27  81 CALM      30.13S                  
JAFFREY        FAIR      27  27 100 CALM      30.14S                  
KEENE          FAIR      26  23  88 CALM      30.17R                  
LEBANON        CLOUDY    32  29  88 CALM      30.14S                  
MT WASHINGTON  FOG       14  14 100 NW35        N/A  VSB 1/16WCI  -8  
$$

VTZ005-007-008-220200-
VERMONT
  
CITY           SKY/WX    TMP DP  RH WIND       PRES   REMARKS
ST JOHNSBURY     N/A     34  28  79 MISG      30.13R                  
MONTPELIER     CLOUDY    34  29  82 CALM      30.16R                  
BURLINGTON     CLOUDY    32  25  75 NW3       30.16R                  
$$

MAZ007-012-024-CTZ003-RIZ002-NYZ038-NYZ072-220200-
SOUTHERN NEW ENGLAND AND NY
  
CITY           SKY/WX    TMP DP  RH WIND       PRES   REMARKS
BOSTON         MOCLDY    36  30  79 S7        30.18S                  
WORCESTER      FAIR      36  26  67 W3        30.15R                  
NANTUCKET      FAIR      31  29  92 CALM      30.20R                  
PROVIDENCE     FAIR      37  30  75 CALM      30.18S                  
HARTFORD       FAIR      33  28  81 CALM      30.17S                  
ALBANY         CLOUDY    30  25  81 CALM      30.18S                  
NEW YORK CITY  CLOUDY    47  33  58 S7        30.18R                  
$$

ANZ081-ANZ082-ANZ150-NHZ014-MEZ023>029-220200-
COASTAL MARINE OBSERVATIONS
  
STATION/POSITION TIME  TEMP    WIND        PRES    WAVE
                       AIR SEA DIR/SP/G            HT/PER
                 (UTC) (F)     (DEG/KT/KT) (MB)    (FT/S)
MOUNT DESERT ROC 0100   39     310/  8/  9 1022.3R
MATINICUS ROCK   0000   39     310/  8/  9 1021.6R
ISLE OF SHOALS   0000   42     110/  3/  4 1021.6R
JEFFREYS LEDGE   0036      43                N/A     2/ 8
GEORGES BANK BUO 2350   49 59              1018.9    9/ 9
$$

.............KEY..............
   WCI - WIND CHILL
   TC  - TEMPERATURE IN CELSIUS
   VSB - VISIBILITY IN MILES
   HX  - HEAT INDEX
   FAIR- INDICATES FEW OR NO CLOUDS BELOW 12,000 FT, WITH NO 
         SIGNIFICANT WEATHER AND/OR OBSTRUCTIONS TO VISIBILITY.